Miscellaneous Local Product
Issued by NWS Hastings, NE

Home | Current Version | Previous Version | Text Only | Print | Product List | Glossary Off
Versions: 1 2 3 4 5 6 7 8 9 10 11 12 13 14 15 16 17 18 19 20 21 22 23 24 25 26 27 28 29 30 31 32 33 34 35 36 37 38 39 40 41 42 43 44 45 46 47 48 49 50

804
AXUS43 KGID 261002
MISGRI

GID CWA HOURLY WEATHER ROUNDUP
NATIONAL WEATHER SERVICE HASTINGS NE
500 AM CDT FRI MAY 26 2017

NOTE: "FAIR" INDICATES FEW OR NO CLOUDS BELOW 12,000 FEET WITH NO
SIGNIFICANT WEATHER AND/OR OBSTRUCTIONS TO VISIBILITY.

...SOUTH CENTRAL NEBRASKA...

CITY           SKY/WX    TMP DP  RH WIND       PRES   REMARKS
GRAND ISLAND   PTCLDY    60  55  83 NW8       29.71R
HASTINGS       CLOUDY    60  54  80 NW9       29.72R
KEARNEY        PTCLDY    61  52  72 NW9       29.74R
ORD            MOCLDY    56  43  61 NW15      29.77R
YORK           CLOUDY    59  57  94 CALM      29.66S
AURORA         CLOUDY    60  56  88 N7        29.67R
LEXINGTON      MOCLDY    60  52  75 N18       29.78R
HOLDREGE       MOCLDY    58  54  86 NW7       29.74R
HEBRON         CLOUDY    62  60  93 CALM      29.66R

...NEBRASKA PANHANDLE...

CITY           SKY/WX    TMP DP  RH WIND       PRES   REMARKS
CHADRON        PTCLDY    46  38  73 W14       29.90R
ALLIANCE       CLEAR     41  38  89 W3        29.90R
SCOTTSBLUFF    CLEAR     42  35  76 NW6       29.93S
SIDNEY         CLOUDY    43  41  93 NW8       29.93R

...WESTERN AND NORTH CENTRAL NEBRASKA...

CITY           SKY/WX    TMP DP  RH WIND       PRES   REMARKS
VALENTINE      PTCLDY    47  39  74 NW7       29.84R
AINSWORTH      MOCLDY    53  44  70 NW12G17   29.82R
ONEILL         CLOUDY    56  43  60 NW14G22   29.76R
BROKEN BOW     MOCLDY    56  44  64 N16       29.81R
IMPERIAL       CLOUDY    55  50  83 NW10      29.84R
NORTH PLATTE   PTCLDY    53  46  77 N9        29.83S
MCCOOK         PTCLDY    56  54  93 NW9       29.78R

...EASTERN NEBRASKA...

CITY           SKY/WX    TMP DP  RH WIND       PRES   REMARKS
NORFOLK        CLOUDY    57  52  83 NW8       29.68R
SO SIOUX CITY  CLOUDY    57  56  96 NW3       29.66R
TEKAMAH        CLOUDY    59  55  87 CALM      29.64S
ALBION         CLOUDY    61  52  73 N10       29.71R
OMAHA EPPLEY   CLOUDY    65  55  70 SE6       29.63F
OFFUTT AFB     CLOUDY    61  57  85 E6        29.63S
MILLARD        CLOUDY    65  59  82 CALM      29.63F
LINCOLN        CLOUDY    64  57  78 W8        29.67R
NEBRASKA CITY  CLOUDY    63  55  75 E5        29.64S
BEATRICE       PTCLDY    61  60  96 CALM      29.65R
FALLS CITY     CLOUDY    59  57  93 W8        29.63R

...NORTHERN KANSAS...

CITY           SKY/WX    TMP DP  RH WIND       PRES   REMARKS
GOODLAND       MOCLDY    54  50  86 NW12      29.86R
HILL CITY      PTCLDY    56  53  90 CALM      29.74R
NORTON         SUNNY     55  50  82 NW10      29.74F
PHILLIPSBURG   CLEAR     57  57 100 W12       29.74R
SMITH CENTER   CLEAR     55  54  94 W9        29.72R
HAYS           CLEAR     54  53  97 W6        29.72S
RUSSELL        CLEAR     56  54  93 W7        29.69R
CONCORDIA      CLEAR     59  59 100 W6        29.67R
SALINA         CLEAR     61  59  93 NW6       29.66R
TOPEKA         CLEAR     62  61  96 N6        29.61R



USA.gov is the U.S. government's official web portal to all federal, state and local government web resources and services.